Regional Weather Roundup
Issued by NWS

Home | Current Version | Previous Version | Text Only | Print | Product List | Glossary Off
Versions: 1 2 3 4 5 6 7 8 9 10 11 12 13 14 15 16 17 18 19 20 21 22 23 24 25 26 27 28 29 30 31 32 33 34 35 36 37 38 39 40 41 42 43 44 45 46 47 48 49 50

000
ASUS43 KFSD 291402
RWRSD

WEATHER ROUNDUP FOR SOUTH DAKOTA
NATIONAL WEATHER SERVICE SIOUX FALLS SD
900 AM CDT SAT AUG 29 2015

NOTE: "FAIR" INDICATES FEW OR NO CLOUDS BELOW 12,000 FEET WITH NO
SIGNIFICANT WEATHER AND/OR OBSTRUCTIONS TO VISIBILITY.


SDZ001>005-009-010-012>017-291500-
NORTHWEST AND NORTH CENTRAL SOUTH DAKOTA

CITY           SKY/WX    TMP DP  RH WIND       PRES   REMARKS
FAITH            N/A     66  56  70 CALM      30.02R
MOBRIDGE       SUNNY     64  64 100 CALM      29.96S
$$

SDZ012>016-024>037-041>051-057-063-072>074-291500-
SOUTHWEST AND SOUTH CENTRAL SOUTH DAKOTA

CITY           SKY/WX    TMP DP  RH WIND       PRES   REMARKS
RAPID CTY ARPT MOSUNNY   61  55  81 CALM      30.06S
PIERRE         PTSUNNY   65  62  90 CALM      29.99R
CUSTER         SUNNY     63  47  55 NW3       30.24R
ELLSWORTH AFB  MOSUNNY   64  53  66 NW2       30.05S
PHILIP         CLOUDY    63  58  83 CALM      30.02S
PINE RIDGE     MOSUNNY   57  51  80 CALM      30.11R
WINNER         FAIR      68  59  73 SW7       30.04S
$$

SDZ004>011-016>023-039-040-291500-
NORTHEAST SOUTH DAKOTA

CITY           SKY/WX    TMP DP  RH WIND       PRES   REMARKS
ABERDEEN       MOSUNNY   62  60  93 S10       30.00R
WATERTOWN      SUNNY     60  57  89 S8        30.05S
BROOKINGS      SUNNY     55  54  94 S3        30.08S
$$

SDZ017-020-022-023-036>040-048>070-291500-
SOUTHEAST SOUTH DAKOTA

CITY           SKY/WX    TMP DP  RH WIND       PRES   REMARKS
SIOUX FALLS    PTSUNNY   57  56  96 S3        30.06F
HURON          MOSUNNY   62  59  90 S10       30.03S
MITCHELL       SUNNY     63  59  87 S8        30.06S
YANKTON        CLOUDY    57  55  94 S5        30.08R VSB 1/4
$$

ABBREVIATIONS USED IN REMARKS
   TC - TEMPERATURE IN CELSIUS
  WCI - WIND CHILL INDEX
   HX - HEAT INDEX
  VSB - VISIBILITY



USA.gov is the U.S. government's official web portal to all federal, state and local government web resources and services.